Hourly Weather Bolshie Polyany

Today, 23 July, Friday

Time Temperature Precipitation Wind Pressure Humidity
00:00 +13°C° 0 mm 3 mps 745 mmHg 61%
01:00 +12°C° 0 mm 3 mps 745 mmHg 62%
02:00 +12°C° 0 mm 3 mps 745 mmHg 62%
03:00 +12°C° 0 mm 2 mps 745 mmHg 63%
04:00 +13°C° 0 mm 2 mps 745 mmHg 64%
05:00 +13°C° 0 mm 2 mps 745 mmHg 65%
06:00 +14°C° 0 mm 2 mps 745 mmHg 66%
07:00 +16°C° 0 mm 3 mps 745 mmHg 60%
08:00 +18°C° 0 mm 3 mps 745 mmHg 55%
09:00 +20°C° 0 mm 4 mps 745 mmHg 50%
10:00 +21°C° 0 mm 4 mps 744 mmHg 47%
11:00 +22°C° 0 mm 5 mps 744 mmHg 45%
12:00 +23°C° 0 mm 5 mps 744 mmHg 42%
13:00 +23°C° 0 mm 5 mps 744 mmHg 43%
14:00 +25°C° 0 mm 5 mps 743 mmHg 43%
15:00 +25°C° 0 mm 4 mps 743 mmHg 44%
16:00 +23°C° 0 mm 4 mps 743 mmHg 47%
17:00 +22°C° 0 mm 4 mps 743 mmHg 51%
18:00 +21°C° 0 mm 4 mps 743 mmHg 55%
19:00 +20°C° 0 mm 4 mps 743 mmHg 60%
20:00 +19°C° 0 mm 3 mps 743 mmHg 65%
21:00 +17°C° 0 mm 3 mps 744 mmHg 71%
22:00 +16°C° 0 mm 3 mps 744 mmHg 75%
23:00 +14°C° 0 mm 3 mps 744 mmHg 80%

Tomorrow, 24 July, Saturday

Time Temperature Precipitation Wind Pressure Humidity
00:00 +13°C° 0 mm 3 mps 744 mmHg 84%
01:00 +13°C° 0 mm 3 mps 745 mmHg 86%
02:00 +12°C° 0 mm 3 mps 745 mmHg 87%
03:00 +12°C° 0 mm 3 mps 745 mmHg 88%
04:00 +13°C° 0 mm 3 mps 745 mmHg 85%
05:00 +13°C° 0 mm 3 mps 746 mmHg 81%
06:00 +13°C° 0 mm 3 mps 746 mmHg 78%
07:00 +16°C° 0 mm 3 mps 746 mmHg 70%
08:00 +18°C° 0 mm 4 mps 746 mmHg 61%
09:00 +19°C° 0 mm 4 mps 747 mmHg 53%
10:00 +20°C° 0 mm 4 mps 747 mmHg 49%
11:00 +21°C° 0 mm 4 mps 747 mmHg 45%
12:00 +22°C° 0 mm 4 mps 747 mmHg 41%
13:00 +22°C° 0 mm 4 mps 748 mmHg 41%
14:00 +22°C° 0 mm 4 mps 748 mmHg 41%
15:00 +22°C° 0 mm 4 mps 748 mmHg 41%
16:00 +21°C° 0 mm 3 mps 748 mmHg 45%
17:00 +20°C° 0 mm 3 mps 749 mmHg 49%
18:00 +20°C° 0 mm 2 mps 749 mmHg 53%
19:00 +19°C° 0 mm 2 mps 750 mmHg 55%
20:00 +18°C° 0 mm 2 mps 750 mmHg 57%
21:00 +17°C° 0 mm 2 mps 751 mmHg 59%
22:00 +16°C° 0 mm 2 mps 751 mmHg 61%
23:00 +15°C° 0 mm 2 mps 751 mmHg 63%

Day after tomorrow, 25 July, Sunday

Time Temperature Precipitation Wind Pressure Humidity
00:00 +15°C° 0 mm 2 mps 752 mmHg 65%
01:00 +14°C° 0 mm 2 mps 752 mmHg 67%
02:00 +14°C° 0 mm 2 mps 752 mmHg 68%
03:00 +13°C° 0 mm 2 mps 752 mmHg 70%
04:00 +13°C° 0 mm 1 mps 753 mmHg 69%
05:00 +14°C° 0 mm 1 mps 753 mmHg 68%
06:00 +14°C° 0 mm 1 mps 753 mmHg 68%
07:00 +16°C° 0 mm 1 mps 754 mmHg 62%
08:00 +19°C° 0 mm 1 mps 754 mmHg 56%
09:00 +20°C° 0 mm 1 mps 754 mmHg 50%
10:00 +22°C° 0 mm 1 mps 754 mmHg 46%
11:00 +23°C° 0 mm 1 mps 754 mmHg 42%
12:00 +24°C° 0 mm 1 mps 754 mmHg 38%
13:00 +24°C° 0 mm 1 mps 754 mmHg 39%
14:00 +23°C° 0 mm 1 mps 754 mmHg 40%
15:00 +23°C° 0 mm 1 mps 754 mmHg 42%
16:00 +23°C° 0 mm 1 mps 754 mmHg 44%
17:00 +23°C° 0 mm 1 mps 754 mmHg 46%
18:00 +22°C° 0 mm 1 mps 754 mmHg 49%
19:00 +21°C° 0 mm 1 mps 755 mmHg 51%
20:00 +20°C° 0 mm 1 mps 755 mmHg 53%
21:00 +18°C° 0 mm 1 mps 755 mmHg 55%
22:00 +18°C° 0 mm 1 mps 755 mmHg 56%
23:00 +16°C° 0 mm 1 mps 755 mmHg 57%

26 July, Monday

Time Temperature Precipitation Wind Pressure Humidity
00:00 +16°C° 0 mm 1 mps 755 mmHg 58%
01:00 +16°C° 0 mm 1 mps 756 mmHg 58%
02:00 +15°C° 0 mm 1 mps 756 mmHg 59%
03:00 +15°C° 0 mm 1 mps 756 mmHg 59%
04:00 +16°C° 0 mm 1 mps 756 mmHg 60%
05:00 +16°C° 0 mm 1 mps 756 mmHg 60%
06:00 +15°C° 0 mm 0 mps 756 mmHg 60%
07:00 +19°C° 0 mm 1 mps 756 mmHg 55%
08:00 +21°C° 0 mm 1 mps 757 mmHg 49%
09:00 +23°C° 0 mm 1 mps 757 mmHg 43%
10:00 +24°C° 0 mm 1 mps 757 mmHg 40%
11:00 +25°C° 0 mm 1 mps 757 mmHg 36%
12:00 +26°C° 0 mm 1 mps 757 mmHg 32%
13:00 +26°C° 0 mm 1 mps 757 mmHg 32%
14:00 +27°C° 0 mm 1 mps 756 mmHg 31%
15:00 +27°C° 0 mm 1 mps 756 mmHg 30%
16:00 +27°C° 0 mm 1 mps 756 mmHg 32%
17:00 +27°C° 0 mm 1 mps 756 mmHg 35%
18:00 +26°C° 0 mm 1 mps 756 mmHg 37%
19:00 +24°C° 0 mm 1 mps 756 mmHg 40%
20:00 +22°C° 0 mm 1 mps 756 mmHg 44%
21:00 +18°C° 0 mm 0 mps 756 mmHg 47%
22:00 +20°C° 0 mm 1 mps 756 mmHg 48%
23:00 +20°C° 0 mm 1 mps 756 mmHg 49%

27 July, Tuesday

Time Temperature Precipitation Wind Pressure Humidity
00:00 +19°C° 0 mm 1 mps 756 mmHg 50%
01:00 +19°C° 0 mm 1 mps 756 mmHg 51%
02:00 +18°C° 0 mm 1 mps 756 mmHg 53%
03:00 +17°C° 0 mm 2 mps 756 mmHg 54%
04:00 +17°C° 0 mm 2 mps 756 mmHg 55%
05:00 +19°C° 0 mm 1 mps 756 mmHg 57%
06:00 +19°C° 0 mm 1 mps 756 mmHg 58%
07:00 +20°C° 0 mm 2 mps 756 mmHg 54%
08:00 +23°C° 0 mm 2 mps 756 mmHg 49%
09:00 +25°C° 0 mm 2 mps 756 mmHg 45%
10:00 +26°C° 0 mm 2 mps 756 mmHg 42%
11:00 +27°C° 0 mm 2 mps 756 mmHg 39%
12:00 +28°C° 0 mm 2 mps 756 mmHg 36%
13:00 +28°C° 0 mm 2 mps 755 mmHg 36%
14:00 +28°C° 0 mm 3 mps 755 mmHg 35%
15:00 +29°C° 0 mm 3 mps 755 mmHg 35%
16:00 +28°C° 0 mm 3 mps 755 mmHg 39%
17:00 +26°C° 0 mm 3 mps 754 mmHg 44%
18:00 +25°C° 0 mm 3 mps 754 mmHg 49%
19:00 +24°C° 0 mm 3 mps 754 mmHg 52%
20:00 +23°C° 0 mm 2 mps 754 mmHg 54%
21:00 +21°C° 0 mm 2 mps 754 mmHg 57%
22:00 +20°C° 0 mm 2 mps 754 mmHg 59%
23:00 +19°C° 0 mm 2 mps 754 mmHg 62%

28 July, Wednesday

Time Temperature Precipitation Wind Pressure Humidity
00:00 +19°C° 0 mm 2 mps 754 mmHg 64%
01:00 +18°C° 0 mm 2 mps 754 mmHg 66%
02:00 +18°C° 0 mm 2 mps 754 mmHg 67%
03:00 +17°C° 0 mm 2 mps 754 mmHg 68%
04:00 +18°C° 0 mm 2 mps 754 mmHg 68%
05:00 +18°C° 0 mm 2 mps 754 mmHg 68%
06:00 +19°C° 0 mm 1 mps 754 mmHg 67%
07:00 +22°C° 0 mm 1 mps 754 mmHg 60%
08:00 +24°C° 0 mm 2 mps 754 mmHg 54%
09:00 +26°C° 0 mm 2 mps 753 mmHg 47%
10:00 +27°C° 0 mm 2 mps 753 mmHg 43%
11:00 +28°C° 0 mm 2 mps 753 mmHg 39%
12:00 +30°C° 0 mm 2 mps 752 mmHg 35%
13:00 +30°C° 0 mm 2 mps 752 mmHg 33%
14:00 +30°C° 0 mm 2 mps 752 mmHg 32%
15:00 +31°C° 0 mm 3 mps 751 mmHg 30%
16:00 +30°C° 0 mm 2 mps 751 mmHg 32%
17:00 +30°C° 0 mm 2 mps 750 mmHg 34%
18:00 +30°C° 0 mm 2 mps 750 mmHg 36%
19:00 +28°C° 0 mm 2 mps 750 mmHg 39%
20:00 +26°C° 0 mm 2 mps 750 mmHg 43%
21:00 +24°C° 0 mm 2 mps 749 mmHg 46%
22:00 +23°C° 0 mm 2 mps 749 mmHg 52%
23:00 +20°C° 0 mm 3 mps 749 mmHg 59%
Show more

We Need Your Consent

Meteoprog and our Service Providers may store and access personal data such as cookies, device identifiers or other similar technologies on your device and process such data to personalise content and ads, as well as provide social media features and to analyse the traffic.

  • Store and/or access information on your device

    Cookies, device identifiers or other information can be stored or accessed on your device for the purposes indicated above.

  • Personalised ads and content, ad and content measurement, audience insights, and products development

    Ads and content can be personalised based on a profile. More data can be added to better personalise ads and content. Ad and content performance can be measured. Insights about the audience who saw the ads and content can be derived. Such data can be used to develop or improve user’s experience, systems and software.

By clicking ‘I Agree’ you will allow the use of indicated cookies, device identifiers, web beacons or other similar technologies. Your settings can be changed in the browser on your device.

For certain purposes, legitimate interests may be relied on, rather than consent. You can read more about this in our Privacy and Cookie Policy.